Key Field
KMEI : rendu visible

Aérodrome :











RETROUVEZ-NOUS SUR...

 
LOGIN :

S'inscrire | Disclaimer

   EN    FR    IT 

 









Légende :    VFR   VFR Marginal   IFR   IFR Intensif   IFR Très Intensif
Visi : 
Plafond : 
>= 8 km
>= 3000ft
5 à 8 km
1000 à 3000 ft
1500m à 5 km
500 à 1000 ft
800 à 1500m
200 à 500 ft
< 800m
< 200 ft
Symboles :   Orages  Brouillard  Fortes neiges  Fortes précipitations  Vent > 20 kt






- Altitude de l'aérodrome : 297 ft
- Code IATA : MEI


KMEI - Key Field

DERNIER METAR :
  • 042258Z 00000KT 10SM SCT120 22/14 A2995 RMK AO2 SLP138 T02220144

METARs EXPIRÉS :
  • 042158Z 28005KT 10SM BKN110 23/13 A2994 RMK AO2 SLP136 T02280133
  • 042058Z 25005KT 10SM CLR 24/13 A2995 RMK AO2 SLP138 T02440133 55012

TAF KMEI
Valide du 04 à 18h jusqu'au 05 à 18h UTC


041732Z 0418/0518 01005KT P6SM BKN100



MET'MAP, la Météo Aéronautique d'un coup d'oeil ! - Copyright ORBIFLY Décembre 2007 - Disclaimer

ORBIFLY MET'MAP TEAM :

Programmation & Développement : Alexandra Zaïnal
Sur une idée originale de : Baudouin d'Aumeries
Assistance à la programmation : Marc-Olivier Méhu
Soutien technique & logistique : Manuel Goepfert

Contact : metmap@orbifly.com




SOURCES & CREDITS :

   NOAA       Earth
Advisory